This is the latest recevied weather packets stored in our database for station/object KF7SOJ. If no packets are shown the sender has not sent any weather packets the latest 10 day(s).
| Time | Temp. | Humidity | Pressure | Rain* | Wind** | Luminosity | Snow |
|---|---|---|---|---|---|---|---|
| 1787922357 | 20.56° C | 55% | 931 hPa | 0 mm | - | 18 W/m² | - |
| 1787922055 | 20.56° C | 56% | 930.7 hPa | 0 mm | - | 13 W/m² | - |
| 1787921749 | 20° C | 57% | 930.9 hPa | 0 mm | - | 10 W/m² | - |
| 1787921449 | 20.56° C | 56% | 930.6 hPa | 0 mm | - | 8 W/m² | - |
| 1787921144 | 20.56° C | 56% | 930.7 hPa | 0 mm | - | 6 W/m² | - |
| 1787920839 | 20.56° C | 55% | 930.6 hPa | 0 mm | - | 5 W/m² | - |
| 1787920534 | 20.56° C | 55% | 930.7 hPa | 0 mm | - | 3 W/m² | - |
| 1787920234 | 20.56° C | 54% | 930.7 hPa | 0 mm | - | 2 W/m² | - |
| 1787919932 | 20.56° C | 54% | 930.4 hPa | 0 mm | - | 1 W/m² | - |
| 1787919631 | 20.56° C | 55% | 930.5 hPa | 0 mm | - | 0 W/m² | - |
| 1787919327 | 20.56° C | 54% | 930.4 hPa | 0 mm | - | 0 W/m² | - |
| 1787919023 | 20.56° C | 54% | 930.4 hPa | 0 mm | - | 0 W/m² | - |
| 1787918717 | 20.56° C | 53% | 930.4 hPa | 0 mm | - | 0 W/m² | - |
| 1787918417 | 20.56° C | 53% | 930.3 hPa | 0 mm | - | 0 W/m² | - |
| 1787918110 | 20° C | 55% | 930.3 hPa | 0 mm | - | 0 W/m² | - |
| 1787917810 | 19.44° C | 57% | 930.3 hPa | 0 mm | - | 0 W/m² | - |
| 1787917507 | 18.89° C | 58% | 930.4 hPa | 0 mm | - | 0 W/m² | - |
| 1787917202 | 18.89° C | 59% | 930.3 hPa | 0 mm | - | 0 W/m² | - |
| 1787916902 | 18.89° C | 60% | 930.3 hPa | 0 mm | - | 0 W/m² | - |
| 1787916601 | 18.33° C | 61% | 930.4 hPa | 0 mm | - | 0 W/m² | - |
| 1787916295 | 18.33° C | 61% | 930.4 hPa | 0 mm | - | 0 W/m² | - |
| 1787915991 | 18.33° C | 61% | 930.3 hPa | 0 mm | - | 0 W/m² | - |
| 1787915686 | 20° C | 58% | 930.3 hPa | 0 mm | - | 0 W/m² | - |
| 1787915381 | 20° C | 58% | 930.2 hPa | 0 mm | - | 0 W/m² | - |
| 1787915076 | 20° C | 57% | 930.2 hPa | 0 mm | - | 0 W/m² | - |
* Rain latest hour (hover to see other rain measurements)
** Current wind speed in m/s (hover to see current wind gust speed)